Voltar ao catálogo

STARLINK-4576

AtivoComunicaçõesVLEO
NORAD 53566·PAYLOAD·🇺🇸 United States

Lançado Aug 19, 2022 de Cape Canaveral Space Force Station

Loading…

Próximas Passagens (próximas 24 horas)

TLE

AtualizadoSource: CelesTrak SupGP

Época: Sep 14, 2026, 21:13 UTC

1 53566C 22101AR  26257.88451389  .00041835  00000+0  12361-2 0  2571
2 53566  53.1568 269.9583 0001140  92.9177 126.8281 15.34367919    15

Acompanhe STARLINK-4576 em tempo real com AllMySat

Download on the App Store